Time,TemperatureF,DewpointF,PressureIn,WindDirection,WindDirectionDegrees,WindSpeedMPH,WindSpeedGustMPH,Humidity,HourlyPrecipIn,Conditions,Clouds,dailyrainin,SolarRadiationWatts/m^2,SoftwareType,DateUTC
2013-04-07 00:00:00,55.7,41.6,29.61,SSE,158,7.0,10.0,59,0.00,,---,0.00,0.00,VWS V14.01,2013-04-07 05:00:00,
2013-04-07 00:05:00,55.6,41.5,29.61,SSE,158,7.0,9.0,59,0.00,,---,0.00,0.00,VWS V14.01,2013-04-07 05:05:00,
2013-04-07 00:10:00,55.9,41.3,29.61,SSE,158,7.0,10.0,58,0.00,,---,0.00,0.00,VWS V14.01,2013-04-07 05:10:00,
2013-04-07 00:15:00,56.0,41.5,29.61,SSE,158,7.0,8.0,58,0.00,,---,0.00,0.00,VWS V14.01,2013-04-07 05:15:00,
2013-04-07 00:20:00,56.6,41.1,29.61,SSE,158,7.0,8.0,56,0.00,,---,0.00,0.00,VWS V14.01,2013-04-07 05:20:00,
2013-04-07 00:25:00,56.7,41.2,29.61,SSE,158,7.0,9.0,56,0.00,,---,0.00,0.00,VWS V14.01,2013-04-07 05:25:00,
2013-04-07 00:30:00,57.0,41.5,29.61,SSE,158,7.0,8.0,56,0.00,,---,0.00,0.00,VWS V14.01,2013-04-07 05:30:00,
2013-04-07 00:35:00,57.0,41.0,29.61,SSE,158,7.0,8.0,55,0.00,,---,0.00,0.00,VWS V14.01,2013-04-07 05:35:00,
2013-04-07 00:40:00,57.0,41.0,29.61,SSE,158,7.0,8.0,55,0.00,,---,0.00,0.00,VWS V14.01,2013-04-07 05:40:00,
2013-04-07 00:45:00,56.7,41.2,29.61,SSE,158,7.0,11.0,56,0.00,,---,0.00,0.00,VWS V14.01,2013-04-07 05:45:00,
2013-04-07 00:50:00,56.9,41.4,29.61,SSE,158,7.0,11.0,56,0.00,,---,0.00,0.00,VWS V14.01,2013-04-07 05:50:00,
2013-04-07 00:55:00,57.0,41.5,29.61,SSE,158,7.0,10.0,56,0.00,,---,0.00,0.00,VWS V14.01,2013-04-07 05:55:00,
2013-04-07 01:00:00,56.6,41.1,29.62,SSE,158,7.0,9.0,56,0.00,,---,0.00,0.00,VWS V14.01,2013-04-07 06:00:00,
2013-04-07 01:05:00,56.3,41.3,29.62,SSE,158,7.0,8.0,57,0.00,,---,0.00,0.00,VWS V14.01,2013-04-07 06:05:00,
2013-04-07 01:10:00,56.3,41.3,29.62,SSE,158,7.0,7.0,57,0.00,,---,0.00,0.00,VWS V14.01,2013-04-07 06:10:00,
2013-04-07 01:15:00,56.3,40.8,29.62,SSE,158,7.0,9.0,56,0.00,,---,0.00,0.00,VWS V14.01,2013-04-07 06:15:00,
2013-04-07 01:20:00,56.5,41.0,29.62,SSE,158,7.0,9.0,56,0.00,,---,0.00,0.00,VWS V14.01,2013-04-07 06:20:00,
2013-04-07 01:25:00,56.3,40.8,29.62,SSE,158,7.0,10.0,56,0.00,,---,0.00,0.00,VWS V14.01,2013-04-07 06:25:00,
2013-04-07 01:30:00,56.5,41.0,29.61,SSE,158,7.0,8.0,56,0.00,,---,0.00,0.00,VWS V14.01,2013-04-07 06:30:00,
2013-04-07 01:35:00,56.6,41.1,29.61,SSE,158,7.0,10.0,56,0.00,,---,0.00,0.00,VWS V14.01,2013-04-07 06:35:00,
2013-04-07 01:40:00,56.5,41.0,29.61,SSE,158,7.0,10.0,56,0.00,,---,0.00,0.00,VWS V14.01,2013-04-07 06:40:00,
2013-04-07 01:45:00,56.3,41.3,29.61,SSE,158,7.0,10.0,57,0.00,,---,0.00,0.00,VWS V14.01,2013-04-07 06:45:00,
2013-04-07 01:50:00,56.0,41.5,29.61,SSE,158,7.0,10.0,58,0.00,,---,0.00,0.00,VWS V14.01,2013-04-07 06:50:00,
2013-04-07 01:55:00,55.7,41.2,29.61,SSE,158,7.0,10.0,58,0.00,,---,0.00,0.00,VWS V14.01,2013-04-07 06:55:00,
2013-04-07 03:00:00,55.0,41.4,29.61,SSW,202,8.0,12.0,60,0.00,,---,0.00,0.00,VWS V14.01,2013-04-07 08:00:00,
2013-04-07 03:05:00,54.2,41.5,29.61,SSW,202,7.0,11.0,62,0.00,,---,0.00,0.00,VWS V14.01,2013-04-07 08:05:00,
2013-04-07 03:10:00,53.3,41.0,29.61,SW,225,7.0,10.0,63,0.00,,---,0.00,0.00,VWS V14.01,2013-04-07 08:10:00,
2013-04-07 03:15:00,52.8,41.0,29.61,SSW,202,6.0,8.0,64,0.00,,---,0.00,0.00,VWS V14.01,2013-04-07 08:15:00,
2013-04-07 03:20:00,52.3,40.5,29.61,SSW,202,8.0,11.0,64,0.00,,---,0.00,0.00,VWS V14.01,2013-04-07 08:20:00,
2013-04-07 03:25:00,51.7,40.7,29.61,SW,225,8.0,11.0,66,0.00,,---,0.00,0.00,VWS V14.01,2013-04-07 08:25:00,
2013-04-07 03:30:00,51.3,41.1,29.62,SW,225,7.0,10.0,68,0.00,,---,0.00,0.00,VWS V14.01,2013-04-07 08:30:00,
2013-04-07 03:35:00,51.1,40.9,29.62,SW,225,9.0,11.0,68,0.00,,---,0.00,0.00,VWS V14.01,2013-04-07 08:35:00,
2013-04-07 03:40:00,51.3,41.5,29.62,SW,225,10.0,12.0,69,0.00,,---,0.00,0.00,VWS V14.01,2013-04-07 08:40:00,
2013-04-07 03:45:00,52.2,42.0,29.61,SW,225,12.0,14.0,68,0.00,,---,0.00,0.00,VWS V14.01,2013-04-07 08:45:00,
2013-04-07 03:50:00,52.9,41.9,29.61,SSW,202,11.0,14.0,66,0.00,,---,0.00,0.00,VWS V14.01,2013-04-07 08:50:00,
2013-04-07 03:55:00,53.2,42.2,29.61,SSW,202,11.0,13.0,66,0.00,,---,0.00,0.00,VWS V14.01,2013-04-07 08:55:00,
2013-04-07 04:00:00,53.6,42.5,29.61,SSW,202,12.0,16.0,66,0.00,,---,0.00,0.00,VWS V14.01,2013-04-07 09:00:00,
2013-04-07 04:05:00,54.1,42.6,29.61,SSW,202,13.0,17.0,65,0.00,,---,0.00,0.00,VWS V14.01,2013-04-07 09:05:00,
2013-04-07 04:10:00,54.5,42.6,29.61,SSW,202,12.0,14.0,64,0.00,,---,0.00,0.00,VWS V14.01,2013-04-07 09:10:00,
2013-04-07 04:15:00,54.7,42.4,29.60,SSW,202,11.0,13.0,63,0.00,,---,0.00,0.00,VWS V14.01,2013-04-07 09:15:00,
2013-04-07 04:20:00,54.8,42.5,29.60,SSW,202,12.0,13.0,63,0.00,,---,0.00,0.00,VWS V14.01,2013-04-07 09:20:00,
2013-04-07 04:25:00,55.1,42.3,29.60,SSW,202,11.0,14.0,62,0.00,,---,0.00,0.00,VWS V14.01,2013-04-07 09:25:00,
2013-04-07 04:30:00,55.3,42.5,29.59,SSW,202,9.0,11.0,62,0.00,,---,0.00,0.00,VWS V14.01,2013-04-07 09:30:00,
2013-04-07 04:35:00,55.1,42.3,29.59,SW,225,10.0,13.0,62,0.00,,---,0.00,0.00,VWS V14.01,2013-04-07 09:35:00,
2013-04-07 04:40:00,55.0,42.2,29.59,SSW,202,9.0,12.0,62,0.00,,---,0.00,0.00,VWS V14.01,2013-04-07 09:40:00,
2013-04-07 04:45:00,55.0,42.2,29.59,SSW,202,8.0,11.0,62,0.00,,---,0.00,0.00,VWS V14.01,2013-04-07 09:45:00,
2013-04-07 04:50:00,54.5,42.2,29.59,SSW,202,7.0,11.0,63,0.00,,---,0.00,0.00,VWS V14.01,2013-04-07 09:50:00,
2013-04-07 04:55:00,54.4,42.1,29.59,SSW,202,9.0,12.0,63,0.00,,---,0.00,0.00,VWS V14.01,2013-04-07 09:55:00,
2013-04-07 05:00:00,54.4,42.1,29.59,South,180,10.0,12.0,63,0.00,,---,0.00,0.00,VWS V14.01,2013-04-07 10:00:00,
2013-04-07 05:05:00,53.6,42.1,29.59,South,180,9.0,11.0,65,0.00,,---,0.00,0.00,VWS V14.01,2013-04-07 10:05:00,
2013-04-07 05:10:00,53.2,41.8,29.59,South,180,10.0,12.0,65,0.00,,---,0.00,0.00,VWS V14.01,2013-04-07 10:10:00,
2013-04-07 05:15:00,52.9,41.5,29.59,South,180,11.0,14.0,65,0.00,,---,0.00,0.00,VWS V14.01,2013-04-07 10:15:00,
2013-04-07 05:20:00,53.5,41.6,29.59,South,180,12.0,13.0,64,0.00,,---,0.00,0.00,VWS V14.01,2013-04-07 10:20:00,
2013-04-07 05:25:00,53.5,41.6,29.59,South,180,12.0,13.0,64,0.00,,---,0.00,0.00,VWS V14.01,2013-04-07 10:25:00,
2013-04-07 05:30:00,53.3,41.5,29.59,South,180,11.0,14.0,64,0.00,,---,0.00,0.00,VWS V14.01,2013-04-07 10:30:00,
2013-04-07 05:35:00,53.2,41.8,29.59,South,180,12.0,13.0,65,0.00,,---,0.00,0.00,VWS V14.01,2013-04-07 10:35:00,
2013-04-07 05:40:00,53.1,41.7,29.59,South,180,11.0,12.0,65,0.00,,---,0.00,0.00,VWS V14.01,2013-04-07 10:40:00,
2013-04-07 05:45:00,52.6,41.6,29.59,South,180,11.0,13.0,66,0.00,,---,0.00,0.00,VWS V14.01,2013-04-07 10:45:00,
2013-04-07 05:50:00,52.5,41.9,29.59,South,180,12.0,13.0,67,0.00,,---,0.00,0.00,VWS V14.01,2013-04-07 10:50:00,
2013-04-07 05:55:00,52.9,41.9,29.59,South,180,12.0,14.0,66,0.00,,---,0.00,0.00,VWS V14.01,2013-04-07 10:55:00,
2013-04-07 06:00:00,53.3,41.8,29.59,South,180,12.0,14.0,65,0.00,,---,0.00,0.00,VWS V14.01,2013-04-07 11:00:00,
2013-04-07 06:05:00,53.6,42.1,29.59,South,180,12.0,15.0,65,0.00,,---,0.00,0.00,VWS V14.01,2013-04-07 11:05:00,
2013-04-07 06:10:00,53.9,41.6,29.59,SSW,202,12.0,14.0,63,0.00,,---,0.00,0.00,VWS V14.01,2013-04-07 11:10:00,
2013-04-07 06:15:00,53.9,42.0,29.58,SSW,202,11.0,14.0,64,0.00,,---,0.00,0.00,VWS V14.01,2013-04-07 11:15:00,
2013-04-07 06:20:00,53.9,42.0,29.58,South,180,11.0,14.0,64,0.00,,---,0.00,0.00,VWS V14.01,2013-04-07 11:20:00,
2013-04-07 06:25:00,53.9,42.4,29.58,South,180,11.0,14.0,65,0.00,,---,0.00,0.00,VWS V14.01,2013-04-07 11:25:00,
2013-04-07 06:30:00,53.8,42.3,29.58,South,180,10.0,13.0,65,0.00,,---,0.00,0.00,VWS V14.01,2013-04-07 11:30:00,
2013-04-07 06:35:00,53.9,42.4,29.58,South,180,11.0,13.0,65,0.00,,---,0.00,0.00,VWS V14.01,2013-04-07 11:35:00,
2013-04-07 06:40:00,53.9,42.4,29.58,South,180,10.0,13.0,65,0.00,,---,0.00,0.00,VWS V14.01,2013-04-07 11:40:00,
2013-04-07 06:45:00,53.9,42.4,29.58,South,180,9.0,13.0,65,0.00,,---,0.00,0.00,VWS V14.01,2013-04-07 11:45:00,
2013-04-07 06:50:00,54.4,42.9,29.58,South,180,11.0,14.0,65,0.00,,---,0.00,0.00,VWS V14.01,2013-04-07 11:50:00,
2013-04-07 06:55:00,54.7,42.8,29.58,South,180,11.0,16.0,64,0.00,,---,0.00,0.00,VWS V14.01,2013-04-07 11:55:00,
2013-04-07 07:00:00,55.0,43.1,29.58,South,180,11.0,14.0,64,0.00,,---,0.00,0.00,VWS V14.01,2013-04-07 12:00:00,
2013-04-07 07:05:00,55.1,43.2,29.58,South,180,11.0,13.0,64,0.00,,---,0.00,0.00,VWS V14.01,2013-04-07 12:05:00,
2013-04-07 07:10:00,55.1,43.2,29.58,South,180,10.0,12.0,64,0.00,,---,0.00,0.00,VWS V14.01,2013-04-07 12:10:00,
2013-04-07 07:15:00,55.0,43.1,29.59,South,180,11.0,16.0,64,0.00,,---,0.00,0.00,VWS V14.01,2013-04-07 12:15:00,
2013-04-07 07:20:00,55.1,42.8,29.59,South,180,10.0,14.0,63,0.00,,---,0.00,0.00,VWS V14.01,2013-04-07 12:20:00,
2013-04-07 07:25:00,55.3,42.9,29.59,South,180,9.0,13.0,63,0.00,,---,0.00,0.00,VWS V14.01,2013-04-07 12:25:00,
2013-04-07 07:30:00,55.3,42.9,29.58,SSE,158,7.0,10.0,63,0.00,,---,0.00,0.00,VWS V14.01,2013-04-07 12:30:00,
2013-04-07 07:35:00,55.3,42.9,29.58,SSE,158,8.0,11.0,63,0.00,,---,0.00,0.00,VWS V14.01,2013-04-07 12:35:00,
2013-04-07 07:40:00,55.3,43.3,29.58,SSE,158,7.0,11.0,64,0.00,,---,0.00,0.00,VWS V14.01,2013-04-07 12:40:00,
2013-04-07 07:45:00,55.1,43.2,29.58,South,180,9.0,12.0,64,0.00,,---,0.00,0.00,VWS V14.01,2013-04-07 12:45:00,
2013-04-07 07:50:00,55.0,43.1,29.58,South,180,9.0,12.0,64,0.00,,---,0.00,0.00,VWS V14.01,2013-04-07 12:50:00,
2013-04-07 07:55:00,55.3,43.3,29.58,South,180,9.0,13.0,64,0.00,,---,0.00,0.00,VWS V14.01,2013-04-07 12:55:00,
2013-04-07 08:00:00,55.4,43.4,29.59,SSW,202,8.0,11.0,64,0.00,,---,0.00,0.00,VWS V14.01,2013-04-07 13:00:00,
2013-04-07 08:05:00,55.4,43.4,29.59,South,180,7.0,8.0,64,0.00,,---,0.00,0.00,VWS V14.01,2013-04-07 13:05:00,
2013-04-07 08:10:00,55.1,43.2,29.59,South,180,7.0,8.0,64,0.00,,---,0.00,0.00,VWS V14.01,2013-04-07 13:10:00,
2013-04-07 08:15:00,55.1,43.2,29.60,South,180,8.0,11.0,64,0.00,,---,0.00,0.00,VWS V14.01,2013-04-07 13:15:00,
2013-04-07 08:20:00,55.4,43.4,29.60,SSE,158,7.0,11.0,64,0.00,,---,0.00,0.00,VWS V14.01,2013-04-07 13:20:00,
2013-04-07 08:25:00,55.6,43.2,29.60,SSE,158,8.0,11.0,63,0.00,,---,0.00,0.00,VWS V14.01,2013-04-07 13:25:00,
2013-04-07 08:30:00,55.7,43.3,29.60,SSE,158,6.0,8.0,63,0.00,,---,0.00,0.00,VWS V14.01,2013-04-07 13:30:00,
2013-04-07 08:35:00,55.9,43.1,29.60,SSE,158,5.0,7.0,62,0.00,,---,0.00,0.00,VWS V14.01,2013-04-07 13:35:00,
2013-04-07 08:40:00,56.2,43.4,29.60,SSE,158,6.0,10.0,62,0.00,,---,0.00,0.00,VWS V14.01,2013-04-07 13:40:00,
2013-04-07 08:45:00,56.3,43.5,29.60,SSE,158,5.0,7.0,62,0.00,,---,0.00,8.00,VWS V14.01,2013-04-07 13:45:00,
2013-04-07 08:50:00,56.3,43.5,29.60,South,180,7.0,11.0,62,0.00,,---,0.00,11.00,VWS V14.01,2013-04-07 13:50:00,
2013-04-07 08:55:00,56.5,43.2,29.60,SSW,202,9.0,12.0,61,0.00,,---,0.00,16.00,VWS V14.01,2013-04-07 13:55:00,
2013-04-07 09:00:00,57.6,43.0,29.60,SSW,202,7.0,11.0,58,0.00,,---,0.00,16.00,VWS V14.01,2013-04-07 14:00:00,
2013-04-07 09:05:00,58.3,42.7,29.60,South,180,6.0,8.0,56,0.00,,---,0.00,16.00,VWS V14.01,2013-04-07 14:05:00,
2013-04-07 09:10:00,59.0,42.4,29.60,SW,225,6.0,12.0,54,0.00,,---,0.00,16.00,VWS V14.01,2013-04-07 14:10:00,
2013-04-07 09:15:00,59.6,42.0,29.60,SW,225,9.0,12.0,52,0.00,,---,0.00,23.00,VWS V14.01,2013-04-07 14:15:00,
2013-04-07 09:20:00,60.1,41.4,29.60,SW,225,10.0,14.0,50,0.00,,---,0.00,23.00,VWS V14.01,2013-04-07 14:20:00,
2013-04-07 09:25:00,61.2,41.4,29.60,SW,225,9.0,13.0,48,0.00,,---,0.00,23.00,VWS V14.01,2013-04-07 14:25:00,
2013-04-07 09:30:00,62.7,42.8,29.60,South,180,13.0,18.0,48,0.00,,---,0.00,26.00,VWS V14.01,2013-04-07 14:30:00,
2013-04-07 09:35:00,66.0,45.8,29.60,South,180,21.0,27.0,48,0.00,,---,0.00,26.00,VWS V14.01,2013-04-07 14:35:00,
2013-04-07 09:40:00,67.6,35.9,29.60,South,180,13.0,24.0,31,0.00,,---,0.00,26.00,VWS V14.01,2013-04-07 14:40:00,
2013-04-07 09:45:00,67.6,35.9,29.61,SSE,158,8.0,17.0,31,0.00,,---,0.00,35.00,VWS V14.01,2013-04-07 14:45:00,
2013-04-07 09:50:00,67.6,39.0,29.61,SSE,158,0.0,6.0,35,0.00,,---,0.00,35.00,VWS V14.01,2013-04-07 14:50:00,
2013-04-07 09:55:00,67.4,36.5,29.61,SSE,158,0.0,2.0,32,0.00,,---,0.00,74.00,VWS V14.01,2013-04-07 14:55:00,
2013-04-07 10:00:00,67.8,36.9,29.60,SSE,158,0.0,0.0,32,0.00,,---,0.00,74.00,VWS V14.01,2013-04-07 15:00:00,
2013-04-07 10:05:00,67.6,36.7,29.60,SSE,158,1.0,2.0,32,0.00,,---,0.00,96.00,VWS V14.01,2013-04-07 15:05:00,
2013-04-07 10:10:00,67.4,38.8,29.60,SSE,158,0.0,0.0,35,0.00,,---,0.00,85.00,VWS V14.01,2013-04-07 15:10:00,
2013-04-07 10:15:00,67.3,38.0,29.60,SSE,158,0.0,0.0,34,0.00,,---,0.00,110.00,VWS V14.01,2013-04-07 15:15:00,
2013-04-07 10:20:00,67.3,38.0,29.60,SSE,158,0.0,0.0,34,0.00,,---,0.00,138.00,VWS V14.01,2013-04-07 15:20:00,
2013-04-07 10:25:00,67.4,43.5,29.60,SSE,158,3.0,6.0,42,0.00,,---,0.00,135.00,VWS V14.01,2013-04-07 15:25:00,
2013-04-07 10:30:00,67.4,38.8,29.60,West,270,1.0,5.0,35,0.00,,---,0.00,144.00,VWS V14.01,2013-04-07 15:30:00,
2013-04-07 10:35:00,67.4,40.2,29.60,West,270,1.0,3.0,37,0.00,,---,0.00,144.00,VWS V14.01,2013-04-07 15:35:00,
2013-04-07 10:40:00,67.6,41.1,29.60,West,270,1.0,2.0,38,0.00,,---,0.00,152.00,VWS V14.01,2013-04-07 15:40:00,
2013-04-07 10:45:00,67.6,43.7,29.59,West,270,1.0,3.0,42,0.00,,---,0.00,157.00,VWS V14.01,2013-04-07 15:45:00,
2013-04-07 10:50:00,67.6,43.7,29.59,West,270,0.0,1.0,42,0.00,,---,0.00,157.00,VWS V14.01,2013-04-07 15:50:00,
2013-04-07 10:55:00,67.6,43.7,29.59,West,270,0.0,0.0,42,0.00,,---,0.00,157.00,VWS V14.01,2013-04-07 15:55:00,
2013-04-07 11:00:00,67.6,43.7,29.59,West,270,0.0,0.0,42,0.00,,---,0.00,132.00,VWS V14.01,2013-04-07 16:00:00,
2013-04-07 11:05:00,67.6,43.7,29.59,West,270,0.0,0.0,42,0.00,,---,0.00,153.00,VWS V14.01,2013-04-07 16:05:00,
2013-04-07 11:10:00,67.8,43.3,29.59,West,270,0.0,0.0,41,0.00,,---,0.00,180.00,VWS V14.01,2013-04-07 16:10:00,
2013-04-07 11:15:00,67.8,43.3,29.59,West,270,0.0,2.0,41,0.00,,---,0.00,183.00,VWS V14.01,2013-04-07 16:15:00,
2013-04-07 11:20:00,68.3,43.1,29.59,West,270,0.0,1.0,40,0.00,,---,0.00,456.00,VWS V14.01,2013-04-07 16:20:00,
2013-04-07 11:25:00,68.6,42.7,29.59,SE,135,4.0,10.0,39,0.00,,---,0.00,378.00,VWS V14.01,2013-04-07 16:25:00,
2013-04-07 11:30:00,69.6,40.0,29.59,SSE,158,9.0,18.0,34,0.00,,---,0.00,278.00,VWS V14.01,2013-04-07 16:30:00,
2013-04-07 11:35:00,69.6,41.5,29.59,SE,135,12.0,20.0,36,0.00,,---,0.00,274.00,VWS V14.01,2013-04-07 16:35:00,
2013-04-07 11:40:00,68.8,40.1,29.59,SE,135,15.0,20.0,35,0.00,,---,0.00,262.00,VWS V14.01,2013-04-07 16:40:00,
2013-04-07 11:45:00,68.1,42.2,29.59,SE,135,9.0,14.0,39,0.00,,---,0.00,246.00,VWS V14.01,2013-04-07 16:45:00,
2013-04-07 11:50:00,67.8,42.6,29.59,ESE,112,8.0,11.0,40,0.00,,---,0.00,166.00,VWS V14.01,2013-04-07 16:50:00,
2013-04-07 11:55:00,67.6,43.1,29.59,ESE,112,8.0,11.0,41,0.00,,---,0.00,195.00,VWS V14.01,2013-04-07 16:55:00,
2013-04-07 12:00:00,67.4,42.3,29.58,ESE,112,10.0,14.0,40,0.00,,---,0.00,221.00,VWS V14.01,2013-04-07 17:00:00,
2013-04-07 12:05:00,67.6,43.7,29.58,ESE,112,8.0,12.0,42,0.00,,---,0.00,267.00,VWS V14.01,2013-04-07 17:05:00,
2013-04-07 12:10:00,67.8,43.9,29.58,ESE,112,10.0,12.0,42,0.00,,---,0.00,304.00,VWS V14.01,2013-04-07 17:10:00,
2013-04-07 12:15:00,68.1,42.9,29.58,SE,135,12.0,16.0,40,0.00,,---,0.00,503.00,VWS V14.01,2013-04-07 17:15:00,
2013-04-07 12:20:00,68.4,43.8,29.58,ESE,112,10.0,14.0,41,0.00,,---,0.00,774.00,VWS V14.01,2013-04-07 17:20:00,
2013-04-07 12:25:00,68.8,44.2,29.58,ESE,112,9.0,14.0,41,0.00,,---,0.00,774.00,VWS V14.01,2013-04-07 17:25:00,
2013-04-07 12:30:00,69.1,45.7,29.57,SE,135,9.0,11.0,43,0.00,,---,0.00,774.00,VWS V14.01,2013-04-07 17:30:00,
2013-04-07 12:35:00,69.1,45.1,29.57,ESE,112,11.0,13.0,42,0.00,,---,0.00,366.00,VWS V14.01,2013-04-07 17:35:00,
2013-04-07 12:40:00,69.6,46.1,29.57,SE,135,8.0,10.0,43,0.00,,---,0.00,366.00,VWS V14.01,2013-04-07 17:40:00,
2013-04-07 12:45:00,70.1,44.0,29.57,SE,135,11.0,18.0,39,0.00,,---,0.00,366.00,VWS V14.01,2013-04-07 17:45:00,
2013-04-07 12:50:00,70.1,44.7,29.57,SSW,202,15.0,17.0,40,0.00,,---,0.00,614.00,VWS V14.01,2013-04-07 17:50:00,
2013-04-07 12:55:00,69.6,46.1,29.57,SE,135,13.0,18.0,43,0.00,,---,0.00,614.00,VWS V14.01,2013-04-07 17:55:00,
2013-04-07 13:00:00,69.8,46.3,29.57,SSE,158,12.0,17.0,43,0.00,,---,0.00,614.00,VWS V14.01,2013-04-07 18:00:00,
2013-04-07 13:05:00,69.6,46.1,29.57,SSW,202,15.0,17.0,43,0.00,,---,0.00,614.00,VWS V14.01,2013-04-07 18:05:00,
2013-04-07 13:10:00,70.8,47.2,29.57,SE,135,11.0,17.0,43,0.00,,---,0.00,614.00,VWS V14.01,2013-04-07 18:10:00,
2013-04-07 13:15:00,70.8,46.0,29.57,SSE,158,14.0,19.0,41,0.00,,---,0.00,614.00,VWS V14.01,2013-04-07 18:15:00,
2013-04-07 13:20:00,70.3,45.5,29.57,SW,225,16.0,22.0,41,0.00,,---,0.00,307.00,VWS V14.01,2013-04-07 18:20:00,
2013-04-07 13:25:00,69.9,47.0,29.57,NW,315,13.0,16.0,44,0.00,,---,0.00,315.00,VWS V14.01,2013-04-07 18:25:00,
2013-04-07 13:30:00,69.3,48.2,29.57,SSE,158,14.0,24.0,47,0.00,,---,0.00,309.00,VWS V14.01,2013-04-07 18:30:00,
2013-04-07 13:35:00,68.9,49.0,29.57,North,0,18.0,25.0,49,0.00,,---,0.00,349.00,VWS V14.01,2013-04-07 18:35:00,
2013-04-07 13:40:00,69.3,47.7,29.57,North,0,17.0,27.0,46,0.00,,---,0.00,378.00,VWS V14.01,2013-04-07 18:40:00,
2013-04-07 13:45:00,69.3,48.8,29.56,North,0,17.0,28.0,48,0.00,,---,0.00,381.00,VWS V14.01,2013-04-07 18:45:00,
2013-04-07 13:50:00,69.3,48.8,29.56,North,0,18.0,26.0,48,0.00,,---,0.00,426.00,VWS V14.01,2013-04-07 18:50:00,
2013-04-07 13:55:00,69.4,48.9,29.56,NW,315,13.0,22.0,48,0.00,,---,0.00,377.00,VWS V14.01,2013-04-07 18:55:00,
2013-04-07 14:00:00,69.1,49.2,29.55,North,0,14.0,19.0,49,0.00,,---,0.00,340.00,VWS V14.01,2013-04-07 19:00:00,
2013-04-07 14:05:00,68.9,48.4,29.55,North,0,17.0,22.0,48,0.00,,---,0.00,340.00,VWS V14.01,2013-04-07 19:05:00,
2013-04-07 14:10:00,69.4,48.9,29.55,North,0,15.0,27.0,48,0.00,,---,0.00,340.00,VWS V14.01,2013-04-07 19:10:00,
2013-04-07 14:15:00,69.4,48.9,29.55,WNW,292,12.0,18.0,48,0.00,,---,0.00,415.00,VWS V14.01,2013-04-07 19:15:00,
2013-04-07 14:20:00,69.6,49.1,29.55,North,0,13.0,19.0,48,0.00,,---,0.00,415.00,VWS V14.01,2013-04-07 19:20:00,
2013-04-07 14:25:00,70.1,49.5,29.55,NW,315,15.0,22.0,48,0.00,,---,0.00,415.00,VWS V14.01,2013-04-07 19:25:00,
2013-04-07 14:30:00,70.9,50.2,29.52,North,0,12.0,20.0,48,0.00,,---,0.00,415.00,VWS V14.01,2013-04-07 19:30:00,
2013-04-07 14:35:00,71.8,48.7,29.52,North,0,15.0,27.0,44,0.00,,---,0.00,309.00,VWS V14.01,2013-04-07 19:35:00,
2013-04-07 14:40:00,71.6,48.6,29.52,WNW,292,14.0,27.0,44,0.00,,---,0.00,303.00,VWS V14.01,2013-04-07 19:40:00,
2013-04-07 14:44:00,72.8,45.0,29.48,North,0,21.0,31.0,37,0.00,,---,0.00,852.00,VWS V14.01,2013-04-07 19:44:00,
2013-04-07 14:45:00,70.8,50.2,29.52,North,0,16.0,21.0,48,0.00,,---,0.00,303.00,VWS V14.01,2013-04-07 19:45:00,
2013-04-07 14:47:00,72.5,46.8,29.47,NNW,344,18.0,25.0,40,0.00,,---,0.00,572.00,VWS V14.01,2013-04-07 19:47:00,
2013-04-07 14:50:00,70.4,49.8,29.52,North,0,16.0,21.0,48,0.00,,---,0.00,452.00,VWS V14.01,2013-04-07 19:50:00,
2013-04-07 14:52:00,72.5,46.8,29.47,NW,318,17.0,26.0,40,0.00,,---,0.00,846.00,VWS V14.01,2013-04-07 19:52:00,
2013-04-07 14:55:00,70.4,49.8,29.52,NNW,338,16.0,22.0,48,0.00,,---,0.00,404.00,VWS V14.01,2013-04-07 19:55:00,
2013-04-07 14:58:00,73.2,46.8,29.47,NNW,340,24.0,25.0,39,0.00,,---,0.00,567.00,VWS V14.01,2013-04-07 19:58:00,
2013-04-07 15:00:00,70.8,50.2,29.50,NW,315,18.0,25.0,48,0.00,,---,0.00,389.00,VWS V14.01,2013-04-07 20:00:00,
2013-04-07 15:03:00,73.5,47.0,29.46,West,261,24.0,27.0,39,0.00,,---,0.00,941.00,VWS V14.01,2013-04-07 20:03:00,
2013-04-07 15:05:00,71.6,49.8,29.50,North,0,21.0,22.0,46,0.00,,---,0.00,389.00,VWS V14.01,2013-04-07 20:05:00,
2013-04-07 15:08:00,74.0,43.1,29.46,WNW,288,22.0,28.0,33,0.00,,---,0.00,662.00,VWS V14.01,2013-04-07 20:08:00,
2013-04-07 15:10:00,72.5,46.8,29.50,North,0,20.0,29.0,40,0.00,,---,0.00,200.00,VWS V14.01,2013-04-07 20:10:00,
2013-04-07 15:13:00,73.7,43.6,29.46,North,356,20.0,27.0,34,0.00,,---,0.00,449.00,VWS V14.01,2013-04-07 20:13:00,
2013-04-07 15:15:00,73.0,44.5,29.48,North,0,19.0,26.0,36,0.00,,---,0.00,528.00,VWS V14.01,2013-04-07 20:15:00,
2013-04-07 15:19:00,73.5,42.7,29.44,South,188,26.0,26.0,33,0.00,,---,0.00,299.00,VWS V14.01,2013-04-07 20:19:00,
2013-04-07 15:20:00,72.8,45.0,29.48,North,0,21.0,31.0,37,0.00,,---,0.00,852.00,VWS V14.01,2013-04-07 20:20:00,
2013-04-07 15:24:00,73.9,40.5,29.44,West,271,19.0,27.0,30,0.00,,---,0.00,347.00,VWS V14.01,2013-04-07 20:24:00,
2013-04-07 15:29:00,74.7,39.5,29.43,NNW,339,21.0,22.0,28,0.00,,---,0.00,394.00,VWS V14.01,2013-04-07 20:29:00,
2013-04-07 15:38:00,74.6,39.4,29.43,North,356,27.0,27.0,28,0.00,,---,0.00,341.00,VWS V14.01,2013-04-07 20:38:00,
2013-04-07 15:45:00,73.0,46.6,29.47,North,0,21.0,26.0,39,0.00,,---,0.00,839.00,VWS V14.01,2013-04-07 20:45:00,
2013-04-07 15:48:00,74.0,39.8,29.43,WNW,289,17.0,17.0,29,0.00,,---,0.00,230.00,VWS V14.01,2013-04-07 20:48:00,
2013-04-07 15:53:00,73.9,38.8,29.43,North,0,22.0,29.0,28,0.00,,---,0.00,188.00,VWS V14.01,2013-04-07 20:53:00,
2013-04-07 15:58:00,73.5,41.0,29.43,NW,319,20.0,30.0,31,0.00,,---,0.00,157.00,VWS V14.01,2013-04-07 20:58:00,
2013-04-07 16:03:00,73.0,45.2,29.43,North,359,20.0,27.0,37,0.00,,---,0.00,141.00,VWS V14.01,2013-04-07 21:03:00,
2013-04-07 16:05:00,73.9,46.7,29.46,WSW,243,17.0,27.0,38,0.00,,---,0.00,941.00,VWS V14.01,2013-04-07 21:05:00,
2013-04-07 16:08:00,72.7,45.7,29.43,NNW,342,15.0,21.0,38,0.00,,---,0.00,157.00,VWS V14.01,2013-04-07 21:08:00,
2013-04-07 16:10:00,73.9,43.0,29.46,North,359,21.0,32.0,33,0.00,,---,0.00,686.00,VWS V14.01,2013-04-07 21:10:00,
2013-04-07 16:13:00,72.7,48.9,29.43,WSW,254,21.0,29.0,43,0.00,,---,0.00,141.00,VWS V14.01,2013-04-07 21:13:00,
2013-04-07 16:15:00,73.5,43.4,29.44,NW,320,20.0,27.0,34,0.00,,---,0.00,449.00,VWS V14.01,2013-04-07 21:15:00,
2013-04-07 16:19:00,72.7,50.2,29.42,North,357,11.0,19.0,45,0.00,,---,0.00,169.00,VWS V14.01,2013-04-07 21:19:00,
2013-04-07 16:24:00,72.7,48.9,29.42,NNW,329,17.0,20.0,43,0.00,,---,0.00,148.00,VWS V14.01,2013-04-07 21:24:00,
2013-04-07 16:29:00,72.5,50.0,29.41,NNW,329,12.0,25.0,45,0.00,,---,0.00,160.00,VWS V14.01,2013-04-07 21:29:00,
2013-04-07 16:35:00,72.0,48.3,29.41,SSE,158,14.0,28.0,43,0.00,,---,0.00,116.00,VWS V14.01,2013-04-07 21:35:00,
2013-04-07 16:40:00,71.6,44.7,29.41,WSW,239,20.0,29.0,38,0.00,,---,0.00,118.00,VWS V14.01,2013-04-07 21:40:00,
2013-04-07 16:45:00,71.3,45.1,29.42,WNW,282,16.0,24.0,39,0.00,,---,0.00,127.00,VWS V14.01,2013-04-07 21:45:00,
2013-04-07 16:50:00,70.4,48.7,29.42,SSW,205,10.0,20.0,46,0.00,,---,0.00,72.00,VWS V14.01,2013-04-07 21:50:00,
2013-04-07 16:55:00,69.8,48.7,29.42,West,261,16.0,20.0,47,0.00,,---,0.00,49.00,VWS V14.01,2013-04-07 21:55:00,
2013-04-07 17:00:00,69.4,50.0,29.42,SSE,168,10.0,20.0,50,0.00,,---,0.00,90.00,VWS V14.01,2013-04-07 22:00:00,
2013-04-07 17:05:00,69.3,47.7,29.42,South,184,18.0,24.0,46,0.00,,---,0.00,93.00,VWS V14.01,2013-04-07 22:05:00,
2013-04-07 17:10:00,69.3,52.0,29.42,West,261,13.0,16.0,54,0.00,,---,0.00,84.00,VWS V14.01,2013-04-07 22:10:00,
2013-04-07 17:15:00,69.3,53.4,29.41,SSE,168,13.0,21.0,57,0.00,,---,0.00,86.00,VWS V14.01,2013-04-07 22:15:00,
2013-04-07 17:20:00,69.1,54.2,29.41,WSW,241,13.0,18.0,59,0.00,,---,0.00,84.00,VWS V14.01,2013-04-07 22:20:00,
2013-04-07 17:25:00,68.9,52.6,29.41,SSW,198,18.0,22.0,56,0.00,,---,0.00,84.00,VWS V14.01,2013-04-07 22:25:00,
2013-04-07 17:30:00,68.8,51.5,29.41,SW,226,18.0,18.0,54,0.00,,---,0.00,91.00,VWS V14.01,2013-04-07 22:30:00,
2013-04-07 17:35:00,68.6,52.3,29.41,NNW,336,16.0,22.0,56,0.00,,---,0.00,84.00,VWS V14.01,2013-04-07 22:35:00,
2013-04-07 17:41:00,68.3,53.0,29.41,NW,318,12.0,25.0,58,0.00,,---,0.00,69.00,VWS V14.01,2013-04-07 22:41:00,
2013-04-07 17:45:00,71.3,45.1,29.42,WNW,282,16.0,24.0,39,0.00,,---,0.00,127.00,VWS V14.01,2013-04-07 22:45:00,
2013-04-07 17:46:00,67.9,52.6,29.41,SW,215,13.0,17.0,58,0.00,,---,0.00,62.00,VWS V14.01,2013-04-07 22:46:00,
2013-04-07 17:50:00,70.4,48.7,29.42,SSW,205,10.0,20.0,46,0.00,,---,0.00,72.00,VWS V14.01,2013-04-07 22:50:00,
2013-04-07 17:51:00,67.8,52.0,29.41,SSE,165,19.0,20.0,57,0.00,,---,0.00,65.00,VWS V14.01,2013-04-07 22:51:00,
2013-04-07 17:55:00,69.8,48.7,29.42,West,261,16.0,20.0,47,0.00,,---,0.00,49.00,VWS V14.01,2013-04-07 22:55:00,
2013-04-07 17:57:00,67.6,51.8,29.41,South,176,12.0,16.0,57,0.00,,---,0.00,113.00,VWS V14.01,2013-04-07 22:57:00,
2013-04-07 18:00:00,69.4,50.0,29.42,SSE,168,10.0,20.0,50,0.00,,---,0.00,90.00,VWS V14.01,2013-04-07 23:00:00,
2013-04-07 18:02:00,67.8,52.5,29.41,SSE,168,8.0,21.0,58,0.00,,---,0.00,106.00,VWS V14.01,2013-04-07 23:02:00,
2013-04-07 18:05:00,69.3,47.7,29.42,South,184,18.0,24.0,46,0.00,,---,0.00,93.00,VWS V14.01,2013-04-07 23:05:00,
2013-04-07 18:07:00,67.8,53.0,29.41,SW,227,13.0,22.0,59,0.00,,---,0.00,97.00,VWS V14.01,2013-04-07 23:07:00,
2013-04-07 18:12:00,67.8,53.9,29.41,WSW,243,14.0,22.0,61,0.00,,---,0.00,111.00,VWS V14.01,2013-04-07 23:12:00,
2013-04-07 18:15:00,69.3,53.4,29.41,SSE,165,17.0,24.0,57,0.00,,---,0.00,86.00,VWS V14.01,2013-04-07 23:15:00,
2013-04-07 18:18:00,67.4,53.9,29.41,West,274,13.0,28.0,62,0.00,,---,0.00,74.00,VWS V14.01,2013-04-07 23:18:00,
2013-04-07 18:20:00,69.1,54.2,29.41,NNW,343,14.0,24.0,59,0.00,,---,0.00,84.00,VWS V14.01,2013-04-07 23:20:00,
2013-04-07 18:23:00,67.1,54.5,29.41,SSE,162,13.0,21.0,64,0.00,,---,0.00,60.00,VWS V14.01,2013-04-07 23:23:00,
2013-04-07 18:25:00,68.9,53.5,29.41,South,174,12.0,27.0,58,0.00,,---,0.00,81.00,VWS V14.01,2013-04-07 23:25:00,
2013-04-07 18:28:00,66.8,54.7,29.41,South,188,17.0,22.0,65,0.00,,---,0.00,70.00,VWS V14.01,2013-04-07 23:28:00,
2013-04-07 18:30:00,68.8,52.0,29.41,SSE,162,13.0,25.0,55,0.00,,---,0.00,91.00,VWS V14.01,2013-04-07 23:30:00,
2013-04-07 18:33:00,66.6,54.9,29.41,SSW,193,28.0,30.0,66,0.00,,---,0.00,102.00,VWS V14.01,2013-04-07 23:33:00,
2013-04-07 18:38:00,66.3,55.0,29.41,NNW,333,18.0,24.0,67,0.00,,---,0.00,30.00,VWS V14.01,2013-04-07 23:38:00,
2013-04-07 18:43:00,65.8,55.4,29.41,SSE,160,21.0,22.0,69,0.00,,---,0.00,23.00,VWS V14.01,2013-04-07 23:43:00,
2013-04-07 18:48:00,65.2,55.6,29.40,WNW,301,22.0,28.0,71,0.00,,---,0.00,26.00,VWS V14.01,2013-04-07 23:48:00,
2013-04-07 18:50:00,67.9,52.6,29.41,NW,311,17.0,21.0,58,0.00,,---,0.00,67.00,VWS V14.01,2013-04-07 23:50:00,
2013-04-07 18:53:00,64.7,55.5,29.40,South,182,18.0,19.0,72,0.00,,---,0.00,26.00,VWS V14.01,2013-04-07 23:53:00,
2013-04-07 18:58:00,64.3,55.5,29.40,SSE,164,20.0,21.0,73,0.00,,---,0.00,42.00,VWS V14.01,2013-04-07 23:58:00,
2013-04-07 19:04:00,64.0,55.6,29.41,NW,306,12.0,21.0,74,0.00,,---,0.00,46.00,VWS V14.01,2013-04-08 00:04:00,
2013-04-07 19:05:00,67.8,52.5,29.41,SSW,196,12.0,21.0,58,0.00,,---,0.00,106.00,VWS V14.01,2013-04-08 00:05:00,
2013-04-07 19:09:00,63.7,55.6,29.41,South,186,14.0,21.0,75,0.00,,---,0.00,32.00,VWS V14.01,2013-04-08 00:09:00,
2013-04-07 19:10:00,67.8,53.4,29.41,SSW,200,14.0,22.0,60,0.00,,---,0.00,113.00,VWS V14.01,2013-04-08 00:10:00,
2013-04-07 19:14:00,63.5,55.4,29.42,SW,232,13.0,20.0,75,0.00,,---,0.00,21.00,VWS V14.01,2013-04-08 00:14:00,
2013-04-07 19:19:00,63.5,55.8,29.42,WSW,246,16.0,18.0,76,0.00,,---,0.00,12.00,VWS V14.01,2013-04-08 00:19:00,
2013-04-07 19:20:00,67.3,54.3,29.41,WNW,292,17.0,28.0,63,0.00,,---,0.00,65.00,VWS V14.01,2013-04-08 00:20:00,
2013-04-07 19:24:00,63.4,56.1,29.42,South,179,10.0,16.0,77,0.00,,---,0.00,0.00,VWS V14.01,2013-04-08 00:24:00,
2013-04-07 19:29:00,63.2,55.9,29.42,South,185,15.0,17.0,77,0.00,,---,0.00,0.00,VWS V14.01,2013-04-08 00:29:00,
2013-04-07 19:30:00,66.8,54.7,29.41,SSE,165,18.0,25.0,65,0.00,,---,0.00,72.00,VWS V14.01,2013-04-08 00:30:00,
2013-04-07 19:34:00,63.2,56.2,29.42,SSW,210,20.0,24.0,78,0.00,,---,0.00,0.00,VWS V14.01,2013-04-08 00:34:00,
2013-04-07 19:35:00,66.4,55.1,29.41,SSW,200,15.0,31.0,67,0.00,,---,0.00,99.00,VWS V14.01,2013-04-08 00:35:00,
2013-04-07 19:40:00,63.1,56.5,29.42,WSW,247,22.0,26.0,79,0.00,,---,0.00,0.00,VWS V14.01,2013-04-08 00:40:00,
2013-04-07 19:45:00,62.9,56.6,29.42,NW,306,19.0,27.0,80,0.00,,---,0.00,0.00,VWS V14.01,2013-04-08 00:45:00,
2013-04-07 19:50:00,62.6,56.3,29.42,WNW,301,19.0,19.0,80,0.00,,---,0.00,11.00,VWS V14.01,2013-04-08 00:50:00,
2013-04-07 19:55:00,62.4,56.5,29.42,WNW,287,16.0,18.0,81,0.00,,---,0.00,5.00,VWS V14.01,2013-04-08 00:55:00,
2013-04-07 20:00:00,62.3,56.7,29.41,WNW,291,14.0,16.0,82,0.00,,---,0.00,0.00,VWS V14.01,2013-04-08 01:00:00,
2013-04-07 20:06:00,62.1,56.5,29.41,SSW,212,13.0,21.0,82,0.00,,---,0.00,0.00,VWS V14.01,2013-04-08 01:06:00,
2013-04-07 20:10:00,63.7,55.6,29.41,SW,227,10.0,21.0,75,0.00,,---,0.00,30.00,VWS V14.01,2013-04-08 01:10:00,
2013-04-07 20:11:00,62.1,56.5,29.41,SW,222,14.0,19.0,82,0.00,,---,0.00,0.00,VWS V14.01,2013-04-08 01:11:00,
2013-04-07 20:15:00,63.5,55.8,29.42,South,172,12.0,20.0,76,0.00,,---,0.00,19.00,VWS V14.01,2013-04-08 01:15:00,
2013-04-07 20:16:00,62.0,56.5,29.40,SSW,196,12.0,20.0,82,0.00,,---,0.00,0.00,VWS V14.01,2013-04-08 01:16:00,
2013-04-07 20:21:00,61.8,56.6,29.40,SSW,198,17.0,20.0,83,0.00,,---,0.00,0.00,VWS V14.01,2013-04-08 01:21:00,
2013-04-07 20:25:00,63.4,56.1,29.42,WSW,253,16.0,16.0,77,0.00,,---,0.00,0.00,VWS V14.01,2013-04-08 01:25:00,
2013-04-07 20:27:00,61.6,56.4,29.40,WNW,287,18.0,22.0,83,0.00,,---,0.00,0.00,VWS V14.01,2013-04-08 01:27:00,
2013-04-07 20:32:00,61.6,56.7,29.41,SW,233,13.0,20.0,84,0.00,,---,0.00,0.00,VWS V14.01,2013-04-08 01:32:00,
2013-04-07 20:37:00,61.5,56.6,29.41,SSW,203,12.0,17.0,84,0.00,,---,0.00,0.00,VWS V14.01,2013-04-08 01:37:00,
2013-04-07 20:40:00,63.1,56.5,29.42,WSW,247,22.0,26.0,79,0.00,,---,0.00,0.00,VWS V14.01,2013-04-08 01:40:00,
2013-04-07 20:42:00,61.3,56.8,29.41,WNW,289,13.0,17.0,85,0.00,,---,0.00,0.00,VWS V14.01,2013-04-08 01:42:00,
2013-04-07 20:45:00,62.9,56.6,29.42,NW,306,19.0,27.0,80,0.00,,---,0.00,0.00,VWS V14.01,2013-04-08 01:45:00,
2013-04-07 20:47:00,61.3,56.8,29.42,SW,232,12.0,14.0,85,0.00,,---,0.00,0.00,VWS V14.01,2013-04-08 01:47:00,
2013-04-07 20:52:00,61.3,57.1,29.42,WNW,292,11.0,17.0,86,0.00,,---,0.00,0.00,VWS V14.01,2013-04-08 01:52:00,
2013-04-07 20:55:00,62.4,56.5,29.42,SW,220,12.0,25.0,81,0.00,,---,0.00,5.00,VWS V14.01,2013-04-08 01:55:00,
2013-04-07 20:57:00,61.3,57.1,29.42,NW,304,14.0,18.0,86,0.00,,---,0.00,0.00,VWS V14.01,2013-04-08 01:57:00,
2013-04-07 21:00:00,62.3,56.7,29.41,WSW,254,13.0,21.0,82,0.00,,---,0.00,0.00,VWS V14.01,2013-04-08 02:00:00,
2013-04-07 21:02:00,61.2,57.0,29.42,West,268,10.0,16.0,86,0.00,,---,0.00,0.00,VWS V14.01,2013-04-08 02:02:00,
2013-04-07 21:05:00,62.1,56.5,29.41,WSW,248,21.0,24.0,82,0.00,,---,0.00,0.00,VWS V14.01,2013-04-08 02:05:00,
2013-04-07 21:07:00,61.2,57.0,29.42,SSW,203,8.0,17.0,86,0.00,,---,0.00,0.00,VWS V14.01,2013-04-08 02:07:00,
2013-04-07 21:13:00,61.2,57.0,29.42,NNW,333,12.0,14.0,86,0.00,,---,0.00,0.00,VWS V14.01,2013-04-08 02:13:00,
2013-04-07 21:15:00,62.0,56.5,29.40,SSE,158,13.0,19.0,82,0.00,,---,0.00,0.00,VWS V14.01,2013-04-08 02:15:00,
2013-04-07 21:18:00,61.2,57.0,29.43,SSW,213,12.0,13.0,86,0.00,,---,0.00,0.00,VWS V14.01,2013-04-08 02:18:00,
2013-04-07 21:23:00,61.2,57.0,29.43,WSW,239,10.0,15.0,86,0.00,,---,0.00,0.00,VWS V14.01,2013-04-08 02:23:00,
2013-04-07 21:28:00,61.3,57.1,29.43,SSW,192,13.0,14.0,86,0.00,,---,0.00,0.00,VWS V14.01,2013-04-08 02:28:00,
2013-04-07 21:30:00,61.6,56.7,29.41,SSW,199,11.0,22.0,84,0.00,,---,0.00,0.00,VWS V14.01,2013-04-08 02:30:00,
2013-04-07 21:33:00,61.2,57.0,29.43,SSW,206,8.0,13.0,86,0.00,,---,0.00,0.00,VWS V14.01,2013-04-08 02:33:00,
2013-04-07 21:35:00,61.5,56.6,29.41,SW,215,14.0,20.0,84,0.00,,---,0.00,0.00,VWS V14.01,2013-04-08 02:35:00,
2013-04-07 21:38:00,61.2,57.3,29.43,SSW,212,11.0,17.0,87,0.00,,---,0.00,0.00,VWS V14.01,2013-04-08 02:38:00,
2013-04-07 21:40:00,61.5,57.0,29.41,SW,233,11.0,17.0,85,0.00,,---,0.00,0.00,VWS V14.01,2013-04-08 02:40:00,
2013-04-07 21:43:00,61.2,57.3,29.43,SW,216,7.0,13.0,87,0.00,,---,0.00,0.00,VWS V14.01,2013-04-08 02:43:00,
2013-04-07 21:45:00,61.3,56.8,29.42,SSW,206,12.0,17.0,85,0.00,,---,0.00,0.00,VWS V14.01,2013-04-08 02:45:00,
2013-04-07 21:49:00,61.0,57.1,29.44,North,354,11.0,11.0,87,0.00,,---,0.00,0.00,VWS V14.01,2013-04-08 02:49:00,
2013-04-07 21:54:00,61.0,57.1,29.44,North,0,12.0,13.0,87,0.00,,---,0.00,0.00,VWS V14.01,2013-04-08 02:54:00,
2013-04-07 21:55:00,61.3,57.1,29.42,WSW,251,10.0,17.0,86,0.00,,---,0.00,0.00,VWS V14.01,2013-04-08 02:55:00,
2013-04-07 21:59:00,60.9,57.0,29.44,SSW,209,11.0,14.0,87,0.00,,---,0.00,0.00,VWS V14.01,2013-04-08 02:59:00,
2013-04-07 22:05:00,60.9,57.3,29.44,SW,222,11.0,13.0,88,0.00,,---,0.00,0.00,VWS V14.01,2013-04-08 03:05:00,
2013-04-07 22:10:00,60.9,57.0,29.44,West,271,11.0,16.0,87,0.00,,---,0.00,0.00,VWS V14.01,2013-04-08 03:10:00,
2013-04-07 22:15:00,60.9,57.3,29.44,SW,232,11.0,14.0,88,0.00,,---,0.00,0.00,VWS V14.01,2013-04-08 03:15:00,
2013-04-07 22:20:00,60.9,57.3,29.44,WNW,296,11.0,12.0,88,0.00,,---,0.00,0.00,VWS V14.01,2013-04-08 03:20:00,
2013-04-07 22:25:00,60.9,57.3,29.44,NNW,342,12.0,14.0,88,0.00,,---,0.00,0.00,VWS V14.01,2013-04-08 03:25:00,
2013-04-07 22:30:00,60.9,57.3,29.45,SW,220,14.0,14.0,88,0.00,,---,0.00,0.00,VWS V14.01,2013-04-08 03:30:00,
2013-04-07 22:35:00,61.2,57.0,29.43,WSW,241,13.0,15.0,86,0.00,,---,0.00,0.00,VWS V14.01,2013-04-08 03:35:00,
2013-04-07 22:36:00,60.9,57.3,29.45,West,281,9.0,13.0,88,0.00,,---,0.00,0.00,VWS V14.01,2013-04-08 03:36:00,
2013-04-07 22:40:00,61.2,57.3,29.43,SSW,212,6.0,17.0,87,0.00,,---,0.00,0.00,VWS V14.01,2013-04-08 03:40:00,
2013-04-07 22:41:00,60.9,57.3,29.45,WNW,295,7.0,11.0,88,0.00,,---,0.00,0.00,VWS V14.01,2013-04-08 03:41:00,
2013-04-07 22:45:00,61.2,57.3,29.44,North,354,9.0,13.0,87,0.00,,---,0.00,0.00,VWS V14.01,2013-04-08 03:45:00,
2013-04-07 22:46:00,60.7,57.4,29.45,WNW,296,9.0,12.0,89,0.00,,---,0.00,0.00,VWS V14.01,2013-04-08 03:46:00,
2013-04-07 22:50:00,61.0,57.1,29.44,WNW,295,10.0,13.0,87,0.00,,---,0.00,0.00,VWS V14.01,2013-04-08 03:50:00,
2013-04-07 22:51:00,60.5,57.2,29.45,West,265,10.0,12.0,89,0.00,,---,0.00,0.00,VWS V14.01,2013-04-08 03:51:00,
2013-04-07 22:56:00,60.4,57.2,29.45,West,264,7.0,12.0,89,0.00,,---,0.00,0.00,VWS V14.01,2013-04-08 03:56:00,
2013-04-07 23:00:00,60.4,57.2,29.45,SSW,205,6.0,13.0,89,0.00,,---,0.00,0.00,VWS V14.01,2013-04-08 04:00:00,
2013-04-07 23:01:00,60.2,57.0,29.45,WSW,239,11.0,12.0,89,0.00,,---,0.00,0.00,VWS V14.01,2013-04-08 04:01:00,
2013-04-07 23:03:00,60.1,56.8,29.45,SSW,206,6.0,12.0,89,0.00,,---,0.00,0.00,VWS V14.01,2013-04-08 04:03:00,
2013-04-07 23:05:00,60.9,57.3,29.44,SW,222,11.0,13.0,88,0.00,,---,0.00,0.00,VWS V14.01,2013-04-08 04:05:00,
2013-04-07 23:09:00,59.8,56.6,29.45,WSW,237,10.0,13.0,89,0.00,,---,0.00,0.00,VWS V14.01,2013-04-08 04:09:00,
2013-04-07 23:14:00,59.5,56.3,29.45,SW,232,7.0,12.0,89,0.00,,---,0.00,0.00,VWS V14.01,2013-04-08 04:14:00,
2013-04-07 23:19:00,59.2,56.3,29.45,SW,226,9.0,11.0,90,0.00,,---,0.00,0.00,VWS V14.01,2013-04-08 04:19:00,
2013-04-07 23:20:00,60.9,57.3,29.44,SW,236,11.0,16.0,88,0.00,,---,0.00,0.00,VWS V14.01,2013-04-08 04:20:00,
2013-04-07 23:24:00,59.0,56.1,29.45,West,265,9.0,12.0,90,0.00,,---,0.00,0.00,VWS V14.01,2013-04-08 04:24:00,
2013-04-07 23:29:00,58.9,56.3,29.45,SSW,205,8.0,12.0,91,0.00,,---,0.00,0.00,VWS V14.01,2013-04-08 04:29:00,
2013-04-07 23:30:00,60.9,57.3,29.45,SW,219,11.0,15.0,88,0.00,,---,0.00,0.00,VWS V14.01,2013-04-08 04:30:00,
2013-04-07 23:34:00,58.7,56.1,29.45,SSW,202,11.0,12.0,91,0.00,,---,0.00,0.00,VWS V14.01,2013-04-08 04:34:00,
2013-04-07 23:35:00,60.9,57.3,29.45,SW,215,6.0,15.0,88,0.00,,---,0.00,0.00,VWS V14.01,2013-04-08 04:35:00,
2013-04-07 23:40:00,58.7,56.4,29.45,SSW,195,10.0,13.0,92,0.00,,---,0.00,0.00,VWS V14.01,2013-04-08 04:40:00,
2013-04-07 23:45:00,58.6,56.3,29.45,NNW,340,11.0,13.0,92,0.00,,---,0.00,0.00,VWS V14.01,2013-04-08 04:45:00,
2013-04-07 23:50:00,58.6,56.6,29.45,WSW,250,11.0,11.0,93,0.00,,---,0.00,0.00,VWS V14.01,2013-04-08 04:50:00,
2013-04-07 23:55:00,58.4,56.4,29.45,WSW,244,14.0,14.0,93,0.00,,---,0.00,0.00,VWS V14.01,2013-04-08 04:55:00,